Volver al catálogo

STARLINK-32628

ActivoComunicacionesVLEO
NORAD 62122·PAYLOAD·🇺🇸 United States

Lanzado Nov 27, 2024 desde Cape Canaveral Space Force Station

Loading…

Próximos Pases (próximas 24 horas)

TLE

ActualizadoSource: CelesTrak SupGP

Época: Sep 14, 2026, 21:25 UTC

1 62122C 24222J   26257.89284722 -.00036324  00000+0 -13158-2 0  2575
2 62122  43.0020 147.6280 0001409 266.0288 165.0342 15.27593980    19

Sigue STARLINK-32628 en tiempo real con AllMySat

Download on the App Store